QPF
0.00 0.00 0.00 0.00 0.00 0.00 0.00 0.00 0.00 0.00 0.00 0.00 0.00 0.00 0.00 0.00 0.00 0.00 0.00 0.00 0.00 0.00 0.00 0.00 0.00 0.00 0.00 0.00 0.00 0.00 0.00 0.00 0.00 0.00 0.00 0.00 0.00 0.00 0.00 0.00 0.00 0.00 0.00 0.00
0.00 0.00 0.00 0.00 0.00 0.00 0.00 0.00 0.00 0.00 0.00 0.00 0.00 0.00 0.00 0.00 0.00 0.00 0.00 0.00 0.00 0.00 0.00 0.00 0.00 0.00 0.00 0.00 0.00 0.00 0.00 0.00 0.00 0.00 0.00 0.00 0.00 0.00 0.00 0.00 0.00 0.00 0.00 0.00
0.00 0.00 0.00 0.00 0.00 0.00 0.00 0.00 0.00 0.00 0.00 0.00 0.00 0.00 0.00 0.00 0.00 0.00 0.00 0.00 0.00 0.00 0.00 0.00 0.00 0.00 0.00 0.00 0.00 0.00 0.00 0.00 0.00 0.00 0.00 0.00 0.00 0.00 0.00 0.00 0.00 0.00 0.01 0.01
0.00 0.00 0.00 0.00 0.00 0.00 0.00 0.00 0.00 0.00 0.00 0.00 0.00 0.00 0.00 0.00 0.00 0.00 0.00 0.00 0.00 0.00 0.00 0.00 0.00 0.00 0.00 0.00 0.00 0.00 0.00 0.00 0.00 0.00 0.00 0.00 0.00 0.00 0.00 0.00 0.00 0.01 0.01 0.00
0.01 0.01 0.00 0.00 0.00 0.00 0.00 0.00 0.00 0.00 0.00 0.00 0.00 0.00 0.00 0.00 0.00 0.00 0.00 0.00 0.00 0.00 0.00 0.00 0.00 0.00 0.00 0.00 0.00 0.00 0.00 0.00 0.00 0.00 0.00 0.00 0.00 0.00 0.00 0.00 0.00 0.00 0.00 0.00
0.01 0.01 0.00 0.00 0.00 0.00 0.00 0.00 0.00 0.00 0.00 0.00 0.00 0.00 0.00 0.00 0.00 0.00 0.00 0.00 0.00 0.00 0.00 0.00 0.00 0.00 0.00 0.00 0.00 0.00 0.00 0.00 0.00 0.00 0.00 0.00 0.00 0.00 0.00 0.00 0.00 0.00 0.00 0.00
0.02 0.01 0.00 0.00 0.00 0.00 0.00 0.00 0.00 0.00 0.00 0.00 0.00 0.00 0.00 0.00 0.00 0.00 0.00 0.00 0.00 0.00 0.00 0.00 0.00 0.00 0.00 0.00 0.00 0.00 0.00 0.00 0.00 0.00 0.00 0.00 0.00 0.00 0.00 0.00 0.00 0.00 0.01 0.01
0.02 0.02 0.00 0.01 0.01 0.00 0.00 0.00 0.00 0.00 0.00 0.00 0.00 0.00 0.00 0.00 0.00 0.00 0.00 0.00 0.00 0.00 0.00 0.00 0.00 0.00 0.00 0.00 0.00 0.00 0.00 0.00 0.00 0.00 0.00 0.00 0.00 0.00 0.00 0.01 0.00 0.01 0.01 0.01
0.01 0.01 0.00 0.00 0.00 0.00 0.00 0.00 0.00 0.00 0.00 0.00 0.00 0.00 0.00 0.00 0.00 0.00 0.00 0.00 0.00 0.00 0.00 0.00 0.00 0.00 0.00 0.00 0.00 0.00 0.00 0.00 0.00 0.00 0.00 0.00 0.00 0.00 0.00 0.01 0.00 0.00 0.00 0.00
0.00 0.00 0.00 0.00 0.00 0.00 0.00 0.00 0.00 0.00 0.00 0.00 0.00 0.00 0.00 0.00 0.00 0.00 0.00 0.00 0.00 0.00 0.00 0.00 0.00 0.00 0.00 0.00 0.00 0.00 0.00 0.00 0.00 0.00 0.00 0.00 0.00 0.00 0.00 0.00 0.01 0.01 0.01 0.01
0.00 0.00 0.00 0.00 0.00 0.00 0.00 0.00 0.00 0.00 0.00 0.00 0.00 0.00 0.00 0.00 0.00 0.00 0.00 0.00 0.00 0.00 0.00 0.00 0.00 0.00 0.00 0.00 0.00 0.00 0.00 0.00 0.00 0.00 0.00 0.00 0.00 0.00 0.00 0.00 0.00 0.01 0.01 0.01
0.01 0.00 0.00 0.00 0.00 0.00 0.00 0.00 0.00 0.00 0.00 0.00 0.00 0.00 0.00 0.00 0.00 0.00 0.00 0.00 0.00 0.00 0.00 0.00 0.00 0.00 0.00 0.00 0.00 0.00 0.00 0.00 0.00 0.00 0.00 0.00 0.00 0.00 0.00 0.00 0.00 0.00 0.00 0.00
0.00 0.00 0.00 0.00 0.00 0.00 0.00 0.00 0.00 0.00 0.00 0.00 0.00 0.00 0.00 0.00 0.00 0.00 0.00 0.00 0.00 0.00 0.00 0.00 0.00 0.00 0.00 0.00 0.00 0.00 0.00 0.00 0.00 0.00 0.00 0.00 0.00 0.00 0.00 0.00 0.00 0.00 0.00 0.01
0.00 0.00 0.00 0.00 0.00 0.00 0.00 0.00 0.00 0.01 0.01 0.01 0.01 0.01 0.01 0.01 0.01 0.01 0.00 0.00 0.00 0.00 0.00 0.00 0.00 0.00 0.00 0.00 0.00 0.00 0.00 0.00 0.00 0.00 0.01 0.00 0.00 0.01 0.01 0.01 0.01 0.01 0.02 0.02
0.00 0.00 0.00 0.00 0.00 0.00 0.00 0.01 0.01 0.01 0.01 0.01 0.01 0.01 0.01 0.01 0.01 0.01 0.01 0.01 0.00 0.00 0.00 0.00 0.00 0.00 0.00 0.00 0.00 0.00 0.00 0.00 0.00 0.00 0.00 0.00 0.00 0.01 0.01 0.02 0.02 0.03 0.03 0.03
0.00 0.00 0.00 0.00 0.00 0.00 0.00 0.01 0.01 0.01 0.01 0.01 0.01 0.01 0.01 0.01 0.01 0.01 0.00 0.00 0.00 0.00 0.00 0.00 0.00 0.00 0.00 0.00 0.00 0.00 0.00 0.00 0.00 0.00 0.00 0.00 0.01 0.01 0.02 0.03 0.04 0.05 0.04 0.03
0.00 0.00 0.00 0.00 0.00 0.00 0.00 0.00 0.00 0.00 0.00 0.00 0.01 0.01 0.00 0.00 0.00 0.00 0.00 0.00 0.00 0.00 0.00 0.00 0.00 0.00 0.00 0.00 0.00 0.00 0.00 0.00 0.00 0.00 0.00 0.01 0.01 0.01 0.02 0.03 0.05 0.05 0.04 0.02
0.00 0.00 0.00 0.00 0.00 0.00 0.00 0.00 0.00 0.00 0.00 0.00 0.00 0.00 0.00 0.00 0.00 0.01 0.00 0.00 0.00 0.00 0.00 0.00 0.00 0.00 0.00 0.00 0.00 0.00 0.00 0.00 0.00 0.01 0.01 0.01 0.01 0.01 0.02 0.04 0.05 0.04 0.03 0.02
0.00 0.00 0.00 0.00 0.00 0.00 0.00 0.00 0.00 0.00 0.00 0.00 0.01 0.01 0.01 0.01 0.01 0.01 0.01 0.01 0.01 0.01 0.00 0.00 0.00 0.00 0.00 0.00 0.00 0.00 0.00 0.00 0.00 0.01 0.01 0.01 0.01 0.02 0.03 0.04 0.04 0.04 0.03 0.03
0.00 0.00 0.00 0.00 0.00 0.00 0.00 0.00 0.00 0.00 0.00 0.00 0.00 0.01 0.01 0.01 0.01 0.01 0.00 0.00 0.00 0.00 0.00 0.00 0.00 0.00 0.00 0.01 0.00 0.00 0.00 0.00 0.00 0.00 0.01 0.02 0.02 0.03 0.03 0.04 0.04 0.03 0.03 0.04
0.00 0.00 0.00 0.00 0.00 0.00 0.00 0.00 0.00 0.00 0.00 0.00 0.00 0.00 0.00 0.00 0.00 0.00 0.00 0.00 0.00 0.00 0.00 0.00 0.00 0.00 0.01 0.01 0.00 0.00 0.00 0.00 0.00 0.00 0.01 0.02 0.02 0.02 0.04 0.04 0.03 0.02 0.03 0.03
0.00 0.00 0.00 0.00 0.00 0.00 0.00 0.00 0.00 0.00 0.00 0.00 0.00 0.00 0.00 0.00 0.00 0.00 0.00 0.00 0.00 0.00 0.00 0.00 0.00 0.00 0.00 0.00 0.00 0.01 0.01 0.01 0.01 0.01 0.02 0.02 0.02 0.03 0.04 0.04 0.04 0.03 0.02 0.03
0.00 0.00 0.00 0.00 0.00 0.00 0.00 0.00 0.00 0.00 0.00 0.00 0.00 0.00 0.00 0.00 0.00 0.00 0.00 0.00 0.00 0.00 0.00 0.00 0.00 0.01 0.01 0.01 0.01 0.01 0.01 0.01 0.01 0.02 0.02 0.02 0.02 0.03 0.03 0.04 0.04 0.04 0.03 0.02
0.00 0.00 0.00 0.00 0.00 0.00 0.00 0.00 0.00 0.00 0.00 0.00 0.00 0.00 0.00 0.00 0.00 0.00 0.00 0.00 0.00 0.00 0.00 0.00 0.01 0.01 0.02 0.02 0.02 0.02 0.02 0.02 0.02 0.02 0.02 0.02 0.02 0.02 0.02 0.03 0.03 0.02 0.02 0.02
0.00 0.00 0.00 0.00 0.00 0.00 0.00 0.00 0.00 0.00 0.00 0.00 0.00 0.00 0.00 0.00 0.00 0.00 0.00 0.00 0.00 0.00 0.01 0.02 0.02 0.02 0.02 0.02 0.03 0.03 0.03 0.02 0.02 0.02 0.02 0.02 0.02 0.02 0.01 0.02 0.02 0.02 0.02 0.03
0.00 0.00 0.00 0.00 0.00 0.00 0.00 0.00 0.00 0.00 0.00 0.00 0.00 0.00 0.00 0.00 0.00 0.00 0.01 0.01 0.01 0.01 0.02 0.03 0.03 0.04 0.03 0.03 0.03 0.03 0.03 0.03 0.03 0.02 0.02 0.02 0.02 0.01 0.01 0.01 0.02 0.02 0.02 0.01
0.00 0.00 0.00 0.00 0.00 0.00 0.00 0.00 0.00 0.00 0.00 0.00 0.00 0.00 0.00 0.00 0.00 0.00 0.01 0.01 0.01 0.02 0.04 0.04 0.04 0.05 0.05 0.04 0.03 0.03 0.03 0.04 0.04 0.04 0.03 0.02 0.02 0.01 0.01 0.01 0.01 0.01 0.01 0.01
MSLP
1011.34 1011.40 1011.45 1011.47 1011.48 1011.45 1011.39 1011.27 1011.10 1010.88 1010.64 1010.39 1010.17 1010.02 1009.97 1010.03 1010.20 1010.49 1010.85 1011.27 1011.70 1012.13 1012.51 1012.84 1013.11 1013.33 1013.51 1013.64 1013.75 1013.82 1013.87 1013.89 1013.88 1013.84 1013.77 1013.67 1013.57 1013.45 1013.34 1013.22 1013.12 1013.02 1012.92 1012.80
1011.28 1011.30 1011.28 1011.21 1011.11 1010.98 1010.82 1010.64 1010.44 1010.23 1010.02 1009.83 1009.68 1009.60 1009.60 1009.69 1009.87 1010.14 1010.46 1010.84 1011.22 1011.60 1011.96 1012.28 1012.56 1012.80 1013.00 1013.16 1013.29 1013.37 1013.43 1013.45 1013.44 1013.40 1013.33 1013.24 1013.14 1013.03 1012.92 1012.81 1012.70 1012.58 1012.46 1012.31
1011.22 1011.20 1011.11 1010.96 1010.77 1010.55 1010.32 1010.09 1009.86 1009.65 1009.47 1009.32 1009.23 1009.19 1009.23 1009.34 1009.51 1009.75 1010.05 1010.37 1010.72 1011.06 1011.40 1011.72 1012.01 1012.27 1012.49 1012.68 1012.82 1012.92 1012.98 1013.00 1012.99 1012.95 1012.88 1012.79 1012.70 1012.60 1012.49 1012.38 1012.26 1012.12 1011.96 1011.78
1011.14 1011.08 1010.93 1010.72 1010.46 1010.17 1009.88 1009.60 1009.34 1009.13 1008.96 1008.84 1008.78 1008.77 1008.83 1008.95 1009.12 1009.34 1009.61 1009.91 1010.23 1010.57 1010.90 1011.23 1011.54 1011.82 1012.07 1012.27 1012.42 1012.53 1012.59 1012.60 1012.58 1012.52 1012.45 1012.36 1012.27 1012.17 1012.06 1011.94 1011.80 1011.63 1011.43 1011.20
1011.02 1010.92 1010.72 1010.45 1010.14 1009.80 1009.46 1009.14 1008.86 1008.63 1008.46 1008.35 1008.30 1008.31 1008.38 1008.51 1008.68 1008.90 1009.17 1009.46 1009.79 1010.14 1010.49 1010.84 1011.18 1011.49 1011.76 1011.98 1012.14 1012.24 1012.28 1012.27 1012.23 1012.15 1012.06 1011.96 1011.86 1011.75 1011.63 1011.49 1011.32 1011.11 1010.86 1010.58
1010.82 1010.68 1010.45 1010.15 1009.80 1009.42 1009.05 1008.69 1008.38 1008.13 1007.94 1007.82 1007.77 1007.79 1007.86 1007.99 1008.18 1008.41 1008.70 1009.02 1009.38 1009.76 1010.16 1010.55 1010.93 1011.27 1011.56 1011.78 1011.94 1012.03 1012.05 1012.02 1011.94 1011.83 1011.71 1011.59 1011.46 1011.33 1011.18 1011.01 1010.80 1010.56 1010.27 1009.95
1010.54 1010.38 1010.14 1009.82 1009.45 1009.05 1008.65 1008.27 1007.93 1007.64 1007.42 1007.28 1007.21 1007.21 1007.28 1007.41 1007.61 1007.87 1008.19 1008.55 1008.96 1009.39 1009.84 1010.29 1010.71 1011.08 1011.40 1011.63 1011.79 1011.86 1011.85 1011.79 1011.67 1011.53 1011.37 1011.21 1011.04 1010.87 1010.69 1010.49 1010.25 1009.97 1009.64 1009.29
1010.21 1010.05 1009.81 1009.49 1009.12 1008.72 1008.30 1007.89 1007.52 1007.19 1006.93 1006.75 1006.64 1006.62 1006.67 1006.80 1007.01 1007.29 1007.64 1008.05 1008.50 1008.99 1009.49 1009.99 1010.45 1010.86 1011.19 1011.44 1011.59 1011.64 1011.62 1011.52 1011.37 1011.19 1010.99 1010.79 1010.58 1010.37 1010.15 1009.91 1009.63 1009.32 1008.98 1008.62
1009.91 1009.77 1009.55 1009.26 1008.90 1008.50 1008.07 1007.64 1007.23 1006.86 1006.55 1006.31 1006.16 1006.09 1006.11 1006.22 1006.42 1006.71 1007.08 1007.51 1008.00 1008.53 1009.07 1009.60 1010.09 1010.52 1010.87 1011.12 1011.26 1011.31 1011.27 1011.15 1010.98 1010.76 1010.53 1010.28 1010.04 1009.78 1009.53 1009.25 1008.95 1008.62 1008.27 1007.91
1009.73 1009.62 1009.44 1009.19 1008.85 1008.47 1008.04 1007.59 1007.15 1006.73 1006.36 1006.06 1005.85 1005.72 1005.69 1005.76 1005.94 1006.20 1006.56 1006.99 1007.48 1008.01 1008.56 1009.09 1009.59 1010.02 1010.37 1010.62 1010.77 1010.82 1010.77 1010.64 1010.45 1010.22 1009.96 1009.68 1009.40 1009.11 1008.82 1008.51 1008.20 1007.87 1007.53 1007.19
1009.76 1009.70 1009.57 1009.35 1009.05 1008.68 1008.25 1007.79 1007.32 1006.86 1006.44 1006.08 1005.80 1005.61 1005.52 1005.53 1005.65 1005.86 1006.17 1006.56 1007.01 1007.50 1008.01 1008.50 1008.97 1009.38 1009.72 1009.96 1010.11 1010.16 1010.11 1009.98 1009.79 1009.55 1009.27 1008.98 1008.67 1008.36 1008.04 1007.72 1007.40 1007.07 1006.76 1006.45
1010.04 1010.04 1009.96 1009.78 1009.51 1009.16 1008.74 1008.27 1007.78 1007.29 1006.82 1006.41 1006.07 1005.81 1005.65 1005.59 1005.63 1005.77 1005.99 1006.29 1006.65 1007.06 1007.48 1007.90 1008.31 1008.67 1008.96 1009.18 1009.32 1009.36 1009.33 1009.21 1009.03 1008.79 1008.52 1008.21 1007.89 1007.56 1007.23 1006.90 1006.58 1006.27 1005.99 1005.72
1010.56 1010.61 1010.56 1010.41 1010.17 1009.83 1009.42 1008.95 1008.45 1007.95 1007.46 1007.02 1006.63 1006.32 1006.10 1005.96 1005.91 1005.94 1006.06 1006.24 1006.47 1006.75 1007.06 1007.37 1007.67 1007.95 1008.18 1008.36 1008.48 1008.52 1008.49 1008.39 1008.22 1008.00 1007.73 1007.43 1007.10 1006.77 1006.43 1006.11 1005.80 1005.51 1005.25 1005.02
1011.23 1011.30 1011.28 1011.15 1010.93 1010.60 1010.20 1009.75 1009.26 1008.76 1008.27 1007.81 1007.41 1007.06 1006.79 1006.58 1006.44 1006.37 1006.36 1006.40 1006.49 1006.62 1006.77 1006.95 1007.12 1007.30 1007.45 1007.58 1007.66 1007.69 1007.66 1007.58 1007.43 1007.23 1006.97 1006.68 1006.36 1006.03 1005.70 1005.38 1005.08 1004.81 1004.58 1004.39
1011.93 1012.02 1012.00 1011.87 1011.65 1011.34 1010.96 1010.52 1010.06 1009.58 1009.12 1008.68 1008.28 1007.92 1007.61 1007.35 1007.14 1006.97 1006.83 1006.74 1006.67 1006.64 1006.63 1006.65 1006.69 1006.75 1006.81 1006.87 1006.91 1006.92 1006.89 1006.82 1006.69 1006.50 1006.27 1006.00 1005.69 1005.37 1005.05 1004.75 1004.46 1004.21 1004.00 1003.83
1012.55 1012.63 1012.59 1012.46 1012.24 1011.94 1011.57 1011.17 1010.74 1010.30 1009.88 1009.48 1009.10 1008.76 1008.44 1008.15 1007.88 1007.62 1007.37 1007.14 1006.93 1006.74 1006.58 1006.45 1006.35 1006.29 1006.26 1006.25 1006.24 1006.22 1006.19 1006.12 1006.00 1005.84 1005.63 1005.38 1005.10 1004.80 1004.50 1004.21 1003.95 1003.71 1003.52 1003.36
1013.01 1013.06 1013.00 1012.85 1012.62 1012.32 1011.98 1011.61 1011.22 1010.84 1010.47 1010.12 1009.78 1009.47 1009.15 1008.84 1008.53 1008.20 1007.86 1007.52 1007.18 1006.85 1006.54 1006.28 1006.06 1005.88 1005.76 1005.68 1005.62 1005.58 1005.53 1005.46 1005.36 1005.22 1005.04 1004.81 1004.56 1004.29 1004.01 1003.75 1003.51 1003.30 1003.13 1002.97
1013.28 1013.28 1013.20 1013.02 1012.78 1012.49 1012.16 1011.82 1011.48 1011.15 1010.84 1010.54 1010.25 1009.96 1009.66 1009.34 1008.99 1008.61 1008.20 1007.76 1007.31 1006.87 1006.45 1006.07 1005.74 1005.48 1005.27 1005.13 1005.03 1004.96 1004.90 1004.83 1004.74 1004.62 1004.47 1004.27 1004.05 1003.82 1003.58 1003.35 1003.14 1002.96 1002.80 1002.66
1013.37 1013.34 1013.21 1013.02 1012.76 1012.47 1012.16 1011.85 1011.55 1011.27 1011.00 1010.74 1010.49 1010.22 1009.93 1009.60 1009.23 1008.80 1008.33 1007.82 1007.29 1006.76 1006.25 1005.79 1005.38 1005.04 1004.77 1004.57 1004.44 1004.34 1004.27 1004.20 1004.13 1004.03 1003.90 1003.74 1003.56 1003.36 1003.16 1002.98 1002.81 1002.66 1002.52 1002.40
1013.35 1013.28 1013.12 1012.90 1012.64 1012.35 1012.06 1011.77 1011.50 1011.25 1011.01 1010.78 1010.54 1010.29 1009.99 1009.65 1009.25 1008.79 1008.27 1007.71 1007.12 1006.53 1005.97 1005.44 1004.97 1004.58 1004.27 1004.03 1003.86 1003.75 1003.67 1003.60 1003.53 1003.45 1003.34 1003.21 1003.07 1002.92 1002.76 1002.62 1002.49 1002.38 1002.28 1002.18
1013.27 1013.15 1012.97 1012.74 1012.47 1012.19 1011.91 1011.64 1011.38 1011.15 1010.92 1010.70 1010.47 1010.21 1009.90 1009.54 1009.12 1008.63 1008.08 1007.49 1006.87 1006.24 1005.64 1005.08 1004.58 1004.16 1003.82 1003.56 1003.36 1003.23 1003.14 1003.06 1002.99 1002.92 1002.84 1002.74 1002.63 1002.51 1002.40 1002.30 1002.21 1002.14 1002.07 1002.01
1013.13 1012.98 1012.77 1012.53 1012.27 1011.99 1011.72 1011.47 1011.23 1011.00 1010.78 1010.56 1010.32 1010.04 1009.72 1009.34 1008.90 1008.40 1007.84 1007.24 1006.61 1005.98 1005.37 1004.80 1004.29 1003.86 1003.50 1003.22 1003.01 1002.86 1002.75 1002.67 1002.60 1002.53 1002.45 1002.37 1002.29 1002.20 1002.12 1002.05 1002.00 1001.96 1001.93 1001.89
1012.92 1012.73 1012.52 1012.27 1012.01 1011.75 1011.49 1011.24 1011.01 1010.79 1010.57 1010.34 1010.10 1009.82 1009.49 1009.11 1008.67 1008.17 1007.62 1007.04 1006.43 1005.82 1005.23 1004.68 1004.18 1003.75 1003.40 1003.11 1002.89 1002.72 1002.59 1002.49 1002.41 1002.34 1002.26 1002.19 1002.11 1002.04 1001.98 1001.93 1001.90 1001.88 1001.87 1001.86
1012.58 1012.37 1012.14 1011.89 1011.64 1011.39 1011.15 1010.92 1010.70 1010.48 1010.27 1010.05 1009.81 1009.53 1009.22 1008.86 1008.45 1007.98 1007.48 1006.94 1006.38 1005.82 1005.28 1004.77 1004.30 1003.89 1003.55 1003.26 1003.03 1002.85 1002.70 1002.59 1002.49 1002.40 1002.31 1002.23 1002.16 1002.09 1002.03 1001.99 1001.96 1001.94 1001.94 1001.93
1012.08 1011.85 1011.60 1011.36 1011.11 1010.87 1010.65 1010.43 1010.23 1010.03 1009.84 1009.64 1009.42 1009.18 1008.90 1008.59 1008.23 1007.84 1007.41 1006.94 1006.47 1005.98 1005.51 1005.06 1004.65 1004.28 1003.95 1003.67 1003.44 1003.25 1003.09 1002.96 1002.84 1002.73 1002.63 1002.54 1002.45 1002.37 1002.31 1002.25 1002.21 1002.18 1002.16 1002.14
1011.41 1011.15 1010.90 1010.65 1010.41 1010.18 1009.97 1009.77 1009.59 1009.41 1009.25 1009.08 1008.91 1008.73 1008.52 1008.28 1008.02 1007.72 1007.39 1007.04 1006.67 1006.29 1005.91 1005.54 1005.18 1004.86 1004.57 1004.31 1004.08 1003.88 1003.71 1003.56 1003.43 1003.31 1003.19 1003.09 1002.99 1002.89 1002.81 1002.73 1002.66 1002.61 1002.56 1002.52
1010.63 1010.35 1010.08 1009.82 1009.58 1009.35 1009.15 1008.96 1008.80 1008.66 1008.53 1008.41 1008.30 1008.19 1008.07 1007.94 1007.79 1007.61 1007.41 1007.18 1006.93 1006.66 1006.39 1006.11 1005.83 1005.56 1005.31 1005.07 1004.86 1004.67 1004.49 1004.34 1004.20 1004.07 1003.94 1003.83 1003.71 1003.61 1003.50 1003.40 1003.30 1003.21 1003.13 1003.04
Thickness
5764 5768 5765 5761 5761 5761 5755 5756 5750 5755 5757 5764 5766 5765 5762 5758 5752 5746 5740 5735 5731 5726 5721 5715 5709 5703 5698 5693 5687 5681 5674 5669 5664 5659 5653 5647 5642 5637 5632 5627 5622 5618 5614 5610
5755 5765 5763 5757 5762 5763 5760 5759 5757 5757 5758 5771 5769 5766 5758 5754 5749 5743 5738 5735 5731 5725 5719 5712 5706 5701 5695 5689 5684 5677 5671 5666 5661 5654 5649 5643 5638 5632 5627 5622 5617 5612 5607 5604
5746 5762 5755 5749 5763 5764 5762 5765 5761 5755 5761 5765 5760 5756 5753 5750 5747 5743 5740 5736 5730 5724 5718 5711 5705 5699 5692 5686 5681 5674 5667 5662 5656 5651 5644 5639 5634 5628 5622 5617 5612 5606 5602 5598
5747 5745 5726 5760 5778 5773 5766 5766 5768 5765 5765 5763 5760 5758 5757 5753 5748 5743 5739 5734 5729 5723 5717 5711 5704 5698 5690 5684 5678 5671 5664 5658 5653 5646 5640 5634 5628 5622 5616 5611 5606 5601 5596 5592
5743 5738 5744 5763 5770 5769 5760 5759 5770 5766 5764 5762 5759 5754 5752 5753 5749 5744 5740 5734 5728 5723 5717 5709 5701 5695 5687 5680 5674 5668 5661 5655 5649 5642 5635 5628 5622 5616 5611 5605 5600 5595 5591 5587
5739 5730 5731 5755 5772 5775 5764 5750 5770 5767 5761 5758 5751 5742 5748 5754 5748 5742 5737 5731 5724 5719 5711 5703 5697 5691 5682 5676 5670 5664 5658 5651 5644 5637 5630 5623 5617 5611 5606 5600 5594 5590 5587 5582
5736 5732 5748 5764 5769 5765 5741 5744 5765 5766 5761 5756 5749 5749 5752 5751 5744 5738 5732 5727 5720 5713 5706 5699 5693 5684 5676 5671 5665 5660 5653 5646 5639 5632 5625 5619 5612 5606 5600 5595 5590 5585 5581 5578
5735 5727 5736 5758 5760 5750 5748 5758 5760 5759 5758 5754 5752 5751 5747 5743 5737 5732 5727 5722 5715 5707 5701 5695 5688 5679 5672 5666 5662 5655 5647 5640 5634 5627 5621 5616 5608 5601 5595 5589 5585 5580 5577 5574
5740 5739 5744 5753 5751 5752 5752 5750 5751 5752 5754 5752 5748 5745 5742 5737 5732 5728 5723 5718 5711 5703 5696 5690 5683 5675 5667 5662 5656 5649 5641 5634 5628 5622 5616 5609 5603 5597 5592 5588 5583 5579 5575 5571
5732 5741 5743 5744 5745 5745 5745 5744 5747 5748 5748 5747 5742 5741 5737 5732 5727 5722 5718 5712 5706 5698 5691 5684 5678 5671 5663 5657 5650 5642 5634 5628 5623 5617 5612 5606 5599 5595 5590 5586 5581 5576 5572 5567
5725 5730 5734 5734 5731 5732 5736 5739 5740 5741 5741 5739 5736 5733 5730 5725 5720 5715 5710 5705 5699 5691 5685 5679 5672 5665 5659 5652 5644 5636 5629 5624 5618 5614 5609 5601 5596 5591 5585 5581 5577 5569 5567 5564
5716 5716 5717 5716 5719 5723 5724 5725 5727 5728 5728 5729 5727 5723 5720 5716 5712 5706 5701 5696 5689 5683 5678 5672 5666 5660 5654 5647 5639 5630 5623 5619 5615 5610 5605 5598 5593 5590 5586 5577 5572 5564 5557 5551
5706 5709 5708 5707 5709 5712 5714 5715 5717 5716 5714 5713 5713 5711 5708 5704 5700 5696 5691 5686 5680 5675 5671 5666 5660 5654 5648 5642 5633 5625 5618 5613 5609 5605 5600 5595 5590 5586 5583 5579 5572 5564 5558 5550
5696 5697 5693 5694 5696 5699 5701 5704 5705 5704 5702 5701 5699 5697 5694 5691 5688 5684 5680 5677 5673 5668 5663 5658 5652 5647 5643 5636 5628 5620 5614 5609 5602 5598 5595 5591 5586 5582 5579 5575 5572 5571 5564 5553
5683 5684 5681 5681 5683 5684 5686 5688 5687 5686 5686 5685 5684 5681 5679 5676 5673 5670 5668 5665 5661 5657 5653 5649 5644 5639 5635 5629 5621 5614 5609 5605 5600 5595 5591 5587 5584 5580 5577 5573 5570 5567 5564 5559
5669 5669 5668 5667 5667 5668 5670 5670 5669 5669 5669 5668 5667 5665 5664 5662 5660 5658 5656 5652 5647 5644 5641 5638 5634 5631 5626 5620 5615 5609 5604 5598 5590 5588 5586 5584 5581 5578 5575 5572 5568 5565 5562 5559
5654 5651 5651 5651 5652 5652 5653 5653 5653 5653 5653 5652 5651 5650 5649 5648 5645 5642 5640 5639 5635 5632 5629 5627 5624 5621 5616 5612 5607 5603 5600 5596 5586 5582 5582 5581 5578 5575 5572 5569 5566 5564 5561 5558
5641 5639 5639 5638 5638 5638 5638 5639 5638 5638 5637 5637 5636 5635 5632 5630 5628 5626 5626 5624 5623 5621 5619 5616 5613 5608 5606 5603 5598 5595 5592 5590 5586 5582 5579 5576 5574 5571 5569 5568 5566 5562 5559 5557
5627 5626 5625 5625 5624 5624 5623 5623 5623 5623 5622 5622 5620 5618 5616 5615 5613 5612 5611 5609 5609 5608 5606 5604 5597 5595 5595 5593 5587 5584 5583 5582 5580 5577 5574 5570 5567 5568 5567 5566 5564 5560 5557 5554
5613 5613 5613 5612 5612 5610 5610 5610 5610 5609 5608 5607 5605 5603 5601 5599 5598 5597 5596 5595 5595 5593 5590 5587 5585 5585 5584 5583 5575 5577 5576 5574 5572 5571 5569 5568 5566 5565 5564 5563 5561 5558 5555 5553
5602 5601 5600 5600 5598 5598 5597 5596 5595 5594 5593 5591 5589 5587 5585 5584 5583 5582 5581 5581 5580 5577 5573 5571 5572 5573 5572 5568 5563 5567 5568 5566 5565 5564 5563 5562 5561 5560 5560 5559 5557 5555 5553 5552
5588 5587 5586 5586 5585 5584 5583 5582 5581 5579 5577 5575 5574 5572 5570 5569 5568 5567 5566 5565 5564 5558 5557 5560 5561 5556 5553 5550 5555 5558 5558 5557 5557 5557 5556 5556 5556 5555 5555 5554 5553 5552 5551 5550
5575 5574 5572 5571 5570 5569 5569 5568 5567 5565 5562 5560 5558 5556 5554 5552 5552 5552 5552 5552 5549 5542 5541 5545 5541 5536 5534 5539 5545 5546 5547 5548 5548 5549 5550 5550 5551 5549 5549 5549 5549 5549 5548 5547
5561 5560 5559 5558 5557 5556 5555 5555 5553 5550 5548 5546 5545 5543 5540 5540 5540 5539 5538 5535 5531 5527 5530 5529 5525 5523 5521 5531 5534 5535 5536 5537 5539 5541 5543 5545 5545 5544 5545 5545 5544 5545 5545 5544
5549 5547 5546 5544 5543 5544 5544 5542 5540 5538 5537 5536 5534 5532 5530 5527 5525 5525 5522 5521 5518 5516 5519 5518 5514 5512 5515 5521 5522 5523 5525 5527 5528 5531 5533 5535 5537 5538 5539 5540 5540 5540 5541 5541
5537 5535 5536 5532 5531 5529 5530 5530 5528 5526 5524 5522 5521 5519 5517 5515 5513 5511 5509 5508 5507 5503 5505 5506 5507 5504 5508 5510 5511 5511 5514 5515 5518 5521 5524 5525 5528 5530 5532 5533 5533 5535 5536 5537
5527 5526 5524 5524 5524 5523 5521 5518 5516 5513 5511 5509 5508 5506 5504 5503 5501 5499 5497 5496 5496 5495 5494 5494 5494 5495 5497 5498 5499 5500 5502 5504 5506 5509 5513 5516 5519 5522 5525 5527 5528 5530 5532 5534